{"data":{"norad_id":68438,"epoch":"2026-05-24T20:38:25.426464Z","epoch_age_seconds":83764,"freshness":"FRESH","line1":"1 68438U 26067Y   26144.86001651  .00010079  00000+0  48403-3 0  9992","line2":"2 68438  97.4509 103.6850 0005455 109.3427 250.8398 15.19031909  8408","mean_motion":15.19031909,"eccentricity":0.0005455,"inclination_deg":97.4509,"raan_deg":103.685,"arg_perigee_deg":109.3427,"mean_anomaly_deg":250.8398,"bstar":0.00048403,"rev_number":840,"period_min":94.797218640915,"perigee_km":505.00830682977,"apogee_km":512.52191703389,"semimajor_km":6886.9021119318,"source":"CELESTRAK","updated_at":"2026-05-25T13:38:07.816845Z"}}